[[{"header":{"parameterUnit":"m.s-1","parameterCategory":1,"la1":30.2991,"la2":30.254,"lo1":-89.0895,"lo2":-89.0444,"dy":0.0017,"dx":0.0017,"nx":28,"ny":28,"refTime":"2025-09-07T03:00:00:Z","depth":0,"parameterNumber":2,"parameterNumberName":"U-component_of_WINDS"},"data":[0,0,0,0,0,0,0,0,0,0,0,0,0,0,0,0,0,0,0,0,0,0,0,0,0,0,0,0,0,0,0,0,0,0,0,0,0,0,0,0,0,0,0,0,0,0,0,0,0,0,0,0,0,0,0,0,0,0,-0.9723,-0.9722,0,-0.9681,-0.9681,-0.9681,-0.9665,-0.9666,-0.9666,-0.9666,-0.9623,-0.9622,-0.9621,0,0,0,0,0,0,0,0,0,0,0,0,0,-0.9788,-0.9787,-0.9723,-0.9722,-0.9722,-0.9682,-0.9681,-0.968,-0.9665,-0.9666,-0.9666,-0.9666,-0.9623,-0.9622,-0.962,0,0,0,0,0,0,0,0,0,0,0,0,0,-0.9754,-0.9786,-0.9723,-0.9709,-0.9708,-0.9682,-0.9681,-0.968,-0.9665,-0.9666,-0.9666,-0.9666,-0.9624,-0.9622,-0.962,-0.9604,0,0,-0.9614,-0.9614,0,0,0,0,0,0,0,0,-0.9756,-0.9752,-0.9712,-0.971,-0.9708,-0.9679,-0.9688,-0.9655,-0.9665,-0.9681,-0.9666,-0.9666,-0.9641,-0.9638,-0.963,-0.9602,-0.96,-0.9614,-0.9613,-0.9612,-0.9612,0,0,0,0,0,0,0,-0.9759,-0.9754,-0.9706,-0.9711,-0.9709,-0.9705,-0.9701,-0.9682,-0.9661,-0.968,-0.9679,-0.9674,-0.964,-0.9632,-0.9629,-0.96,-0.9614,-0.9613,-0.9611,-0.9611,-0.9557,-0.9557,0,0,0,0,0,0,-0.9763,-0.9756,-0.9708,-0.9705,-0.9733,-0.9704,-0.9699,-0.9688,-0.9661,-0.9657,-0.9674,-0.9674,-0.9635,-0.9631,-0.9627,-0.9607,-0.9612,-0.961,-0.9609,-0.9558,-0.9557,-0.9557,0,0,0,0,0,0,-0.9765,-0.9759,-0.9709,-0.973,-0.9723,-0.9703,-0.9691,-0.9687,-0.9678,-0.9656,-0.9653,-0.9669,-0.9635,-0.963,-0.961,-0.9605,-0.961,-0.9608,-0.9558,-0.9558,-0.9557,-0.9566,0,0,0,0,0,0,-0.9767,-0.976,-0.9754,-0.973,-0.9722,-0.9693,-0.969,-0.9686,-0.9675,-0.9674,-0.9651,-0.9647,-0.9635,-0.9613,-0.9608,-0.9603,-0.9606,-0.9558,-0.9558,-0.9557,-0.9566,-0.9566,-0.9566,0,0,0,0,0,-0.9769,-0.9757,-0.9753,-0.9748,-0.9714,-0.9693,-0.9688,-0.9675,-0.9675,-0.9668,-0.9654,-0.9648,-0.9607,-0.9611,-0.9606,-0.9599,-0.9559,-0.9558,-0.9557,-0.9566,-0.9566,-0.9566,0,0,0,0,0,0,-0.978,-0.9754,-0.9749,-0.973,-0.9714,-0.969,-0.9682,-0.9675,-0.9658,-0.9658,-0.9642,-0.9637,-0.9618,-0.9607,-0.9612,-0.9583,-0.9582,-0.958,-0.9591,-0.959,-0.959,-0.9593,-0.9605,0,0,0,0,0,-0.9781,-0.9766,-0.9743,-0.9728,-0.9721,-0.9703,-0.9693,-0.9684,-0.9666,-0.9659,-0.9644,-0.9627,-0.9611,-0.96,-0.9583,-0.9564,-0.9559,-0.9557,-0.9557,-0.9557,-0.9556,-0.9545,-0.9544,-0.9555,-0.9555,-0.9555,0,0,-0.9781,-0.9765,-0.9756,-0.973,-0.9717,-0.9702,-0.9697,-0.9681,-0.9669,-0.9657,-0.9637,-0.9626,-0.9606,-0.9587,-0.9577,-0.9577,-0.9552,-0.9556,-0.9557,-0.9555,-0.9545,-0.9544,-0.9543,-0.9555,-0.9555,-0.9555,0,0,-0.9774,-0.976,-0.9746,-0.9733,-0.9713,-0.9701,-0.9698,-0.9675,-0.9667,-0.9647,-0.9638,-0.9624,-0.9595,-0.9582,-0.9571,-0.956,-0.9553,-0.9555,-0.9554,-0.9544,-0.9543,-0.9542,-0.9538,-0.9537,-0.9553,-0.9553,-0.9553,0,-0.9776,-0.9753,-0.974,-0.9724,-0.9713,-0.9702,-0.9687,-0.9675,-0.965,-0.9643,-0.9642,-0.9607,-0.9593,-0.957,-0.9568,-0.9559,-0.9555,-0.9557,-0.9544,-0.9543,-0.9542,-0.9538,-0.9537,-0.9554,-0.9554,-0.9554,-0.9554,0,-0.9758,-0.9742,-0.9733,-0.971,-0.9698,-0.9683,-0.9667,-0.9656,-0.9649,-0.9637,-0.9617,-0.96,-0.958,-0.9574,-0.9566,-0.9551,-0.9551,-0.9548,-0.9547,-0.9542,-0.9538,-0.9536,-0.9554,-0.9554,-0.9554,-0.9554,0,0,-0.9756,-0.9726,-0.9723,-0.9712,-0.969,-0.9677,-0.9662,-0.9643,-0.9634,-0.9617,-0.9604,-0.9581,-0.9578,-0.9566,-0.9556,-0.9548,-0.954,-0.9545,-0.9545,-0.9545,-0.9522,-0.9524,-0.9523,-0.9535,-0.9535,-0.9535,-0.9523,0,-0.9746,-0.9718,-0.9706,-0.9684,-0.9669,-0.9658,-0.9645,-0.963,-0.9618,-0.9604,-0.9592,-0.9575,-0.9573,-0.9565,-0.9556,-0.9543,-0.9535,-0.9543,-0.9523,-0.9522,-0.9528,-0.952,-0.9523,-0.9513,-0.9522,-0.9521,-0.9521,0,-0.973,-0.9714,-0.9691,-0.967,-0.9663,-0.9652,-0.9633,-0.962,-0.9602,-0.9595,-0.9582,-0.9573,-0.9556,-0.9557,-0.9534,-0.954,-0.9531,-0.9524,-0.9523,-0.952,-0.9521,-0.9518,-0.951,-0.9508,-0.9519,-0.9519,-0.9519,0,-0.9731,-0.9703,-0.9686,-0.9677,-0.9653,-0.9645,-0.9634,-0.9617,-0.9606,-0.959,-0.9583,-0.9565,-0.9555,-0.9542,-0.9528,-0.953,-0.9507,-0.9507,-0.95,-0.9501,-0.9496,-0.9496,-0.9486,-0.949,-0.949,-0.949,-0.949,0,-0.972,-0.9707,-0.9686,-0.9676,-0.966,-0.9646,-0.963,-0.9619,-0.9604,-0.9591,-0.958,-0.9568,-0.9551,-0.9537,-0.9526,-0.9509,-0.9505,-0.9499,-0.9496,-0.9499,-0.95,-0.9493,-0.9493,-0.949,-0.949,-0.949,-0.949,0,-0.9719,-0.9704,-0.9685,-0.9664,-0.9658,-0.9647,-0.9629,-0.9618,-0.9607,-0.959,-0.9586,-0.9568,-0.955,-0.9536,-0.9513,-0.9506,-0.9488,-0.9485,-0.9494,-0.9493,-0.9488,-0.9488,-0.9472,-0.947,-0.9476,-0.9476,-0.9476,0,-0.9713,-0.9702,-0.968,-0.967,-0.966,-0.9645,-0.9634,-0.962,-0.9609,-0.9589,-0.958,-0.9563,-0.9547,-0.9521,-0.9505,-0.9488,-0.9484,-0.948,-0.9482,-0.9486,-0.9484,-0.9485,-0.9484,-0.948,-0.948,-0.948,-0.948,0,-0.9704,-0.9698,-0.9683,-0.9665,-0.9653,-0.9638,-0.9624,-0.9617,-0.96,-0.9588,-0.957,-0.9559,-0.9536,-0.9518,-0.95,-0.9489,-0.9482,-0.948,-0.9477,-0.9481,-0.9487,-0.9483,-0.9494,-0.948,-0.948,-0.948,-0.948,-0.948,-0.97,-0.969,-0.9673,-0.9657,-0.9644,-0.9631,-0.962,-0.9607,-0.9592,-0.9573,-0.9565,-0.9547,-0.9531,-0.9505,-0.9494,-0.948,-0.9479,-0.9475,-0.9474,-0.9474,-0.9474,-0.9489,-0.9476,-0.9476,-0.9476,-0.9476,-0.9476,0,-0.9691,-0.9679,-0.9665,-0.9645,-0.9632,-0.9627,-0.961,-0.96,-0.9584,-0.9569,-0.9555,-0.9535,-0.9518,-0.9502,-0.9484,-0.9476,-0.9472,-0.9472,-0.9472,-0.947,-0.9476,-0.948,-0.9475,-0.9475,-0.9475,-0.9475,-0.9475,-0.9475,-0.9684,-0.9667,-0.9659,-0.9636,-0.9625,-0.9607,-0.9598,-0.9586,-0.9574,-0.9552,-0.9538,-0.9528,-0.9512,-0.9494,-0.9478,-0.9474,-0.9468,-0.9468,-0.9463,-0.9469,-0.9469,-0.947,-0.9473,-0.9467,-0.9467,-0.9458,-0.9458,-0.9458]},{"header":{"parameterUnit":"m.s-1","parameterCategory":1,"la1":30.2991,"la2":30.254,"lo1":-89.0895,"lo2":-89.0444,"dy":0.0017,"dx":0.0017,"nx":28,"ny":28,"refTime":"2025-09-07T03:00:00:Z","depth":0,"parameterNumber":3,"parameterNumberName":"V-component_of_WINDS"},"data":[0,0,0,0,0,0,0,0,0,0,0,0,0,0,0,0,0,0,0,0,0,0,0,0,0,0,0,0,0,0,0,0,0,0,0,0,0,0,0,0,0,0,0,0,0,0,0,0,0,0,0,0,0,0,0,0,0,0,-1.3329,-1.3329,0,-1.3308,-1.3308,-1.3308,-1.3296,-1.3296,-1.3296,-1.3296,-1.3272,-1.3272,-1.3271,0,0,0,0,0,0,0,0,0,0,0,0,0,-1.336,-1.3359,-1.3329,-1.3329,-1.3329,-1.3308,-1.3308,-1.3308,-1.3296,-1.3296,-1.3296,-1.3296,-1.3272,-1.3272,-1.3271,0,0,0,0,0,0,0,0,0,0,0,0,0,-1.3343,-1.3359,-1.3329,-1.3321,-1.332,-1.3308,-1.3308,-1.3307,-1.3296,-1.3296,-1.3296,-1.3296,-1.3273,-1.3272,-1.3271,-1.3266,0,0,-1.3268,-1.3268,0,0,0,0,0,0,0,0,-1.3344,-1.3342,-1.3322,-1.3321,-1.332,-1.3305,-1.331,-1.3294,-1.3296,-1.3305,-1.3296,-1.3296,-1.3283,-1.3281,-1.3277,-1.3265,-1.3264,-1.3268,-1.3267,-1.3267,-1.3267,0,0,0,0,0,0,0,-1.3346,-1.3343,-1.3321,-1.3322,-1.3321,-1.3318,-1.3315,-1.3307,-1.3294,-1.3304,-1.3303,-1.3301,-1.3282,-1.3278,-1.3277,-1.3264,-1.3268,-1.3267,-1.3267,-1.3266,-1.3248,-1.3249,0,0,0,0,0,0,-1.3348,-1.3344,-1.3322,-1.332,-1.3332,-1.3317,-1.3314,-1.331,-1.3294,-1.3292,-1.3301,-1.33,-1.328,-1.3278,-1.3276,-1.327,-1.3267,-1.3266,-1.3266,-1.3248,-1.3248,-1.3249,0,0,0,0,0,0,-1.3349,-1.3346,-1.3322,-1.3332,-1.3329,-1.3317,-1.3311,-1.3309,-1.3305,-1.3292,-1.329,-1.3299,-1.328,-1.3277,-1.3269,-1.3269,-1.3266,-1.3265,-1.3248,-1.3248,-1.3248,-1.3259,0,0,0,0,0,0,-1.335,-1.3347,-1.3345,-1.3332,-1.3328,-1.3316,-1.3311,-1.3309,-1.3304,-1.3303,-1.329,-1.3287,-1.3279,-1.3271,-1.3268,-1.3268,-1.3264,-1.3248,-1.3248,-1.3248,-1.3259,-1.326,-1.326,0,0,0,0,0,-1.3351,-1.3348,-1.3345,-1.3342,-1.3326,-1.3316,-1.3314,-1.3306,-1.3304,-1.3302,-1.3294,-1.3288,-1.327,-1.327,-1.3267,-1.3267,-1.3248,-1.3248,-1.3248,-1.3258,-1.3259,-1.326,0,0,0,0,0,0,-1.3359,-1.3346,-1.3342,-1.3335,-1.3327,-1.3314,-1.3312,-1.3307,-1.3299,-1.3298,-1.3287,-1.3284,-1.3278,-1.3271,-1.3272,-1.3262,-1.3258,-1.3258,-1.3267,-1.3268,-1.3269,-1.327,-1.3264,0,0,0,0,0,-1.3361,-1.3355,-1.3343,-1.3337,-1.3334,-1.3324,-1.3319,-1.3313,-1.3305,-1.3301,-1.3292,-1.3284,-1.3276,-1.3272,-1.3264,-1.3258,-1.3255,-1.3256,-1.3257,-1.3258,-1.3258,-1.3255,-1.3256,-1.3249,-1.3249,-1.3249,0,0,-1.3362,-1.3354,-1.3351,-1.3339,-1.3332,-1.3326,-1.3321,-1.3314,-1.331,-1.33,-1.3292,-1.3286,-1.3276,-1.3269,-1.3266,-1.3264,-1.3259,-1.3258,-1.3259,-1.3258,-1.3256,-1.3256,-1.3257,-1.3249,-1.3249,-1.3249,0,0,-1.3363,-1.3356,-1.3352,-1.3346,-1.3336,-1.333,-1.3329,-1.3317,-1.3313,-1.3306,-1.3298,-1.3293,-1.328,-1.3274,-1.3269,-1.327,-1.3264,-1.3267,-1.3271,-1.3269,-1.327,-1.3271,-1.3272,-1.3272,-1.3267,-1.3267,-1.3267,0,-1.3367,-1.3358,-1.335,-1.3345,-1.334,-1.3332,-1.3328,-1.3322,-1.331,-1.3307,-1.3305,-1.329,-1.3282,-1.3275,-1.3275,-1.3271,-1.327,-1.3269,-1.3271,-1.3271,-1.3271,-1.3273,-1.3273,-1.3268,-1.3268,-1.3267,-1.3267,0,-1.3364,-1.3358,-1.3355,-1.3346,-1.3341,-1.3336,-1.3327,-1.3323,-1.3318,-1.3312,-1.3306,-1.3297,-1.3288,-1.3285,-1.328,-1.3278,-1.3277,-1.3273,-1.3269,-1.3273,-1.3274,-1.3274,-1.3268,-1.3268,-1.3268,-1.3268,0,0,-1.3368,-1.3355,-1.3355,-1.3351,-1.3341,-1.3336,-1.3331,-1.3324,-1.3321,-1.3313,-1.331,-1.33,-1.3297,-1.3291,-1.3285,-1.3283,-1.3286,-1.328,-1.3279,-1.3282,-1.3285,-1.3289,-1.3289,-1.3283,-1.3283,-1.3283,-1.3286,0,-1.3368,-1.336,-1.3353,-1.3348,-1.3343,-1.3336,-1.3332,-1.3326,-1.332,-1.3315,-1.3309,-1.3303,-1.3298,-1.3295,-1.3293,-1.3286,-1.3287,-1.3286,-1.3279,-1.3279,-1.3283,-1.3289,-1.3293,-1.3296,-1.3286,-1.3286,-1.3286,0,-1.3366,-1.3361,-1.3355,-1.3347,-1.3345,-1.3342,-1.3335,-1.333,-1.3323,-1.332,-1.3315,-1.3309,-1.3304,-1.3301,-1.3295,-1.3294,-1.3291,-1.3288,-1.3288,-1.3287,-1.3283,-1.329,-1.3297,-1.3298,-1.3287,-1.3287,-1.3287,0,-1.3372,-1.3362,-1.3358,-1.3355,-1.3345,-1.3344,-1.3339,-1.3332,-1.3329,-1.3323,-1.3321,-1.3314,-1.3311,-1.3306,-1.3299,-1.3297,-1.3294,-1.3289,-1.3291,-1.3291,-1.3291,-1.3291,-1.3298,-1.3288,-1.3288,-1.3288,-1.3288,0,-1.3373,-1.337,-1.3361,-1.3358,-1.3355,-1.3348,-1.3345,-1.334,-1.3334,-1.3331,-1.3324,-1.3321,-1.3312,-1.3308,-1.3302,-1.3299,-1.3297,-1.3294,-1.3292,-1.3295,-1.3295,-1.3293,-1.3293,-1.3288,-1.3288,-1.3288,-1.3288,0,-1.3378,-1.3372,-1.3367,-1.3359,-1.3357,-1.3355,-1.3348,-1.3346,-1.3341,-1.3337,-1.3335,-1.3327,-1.3322,-1.3315,-1.3307,-1.3303,-1.3301,-1.3298,-1.3304,-1.3303,-1.3306,-1.3306,-1.3312,-1.3313,-1.3302,-1.3302,-1.3302,0,-1.3379,-1.3377,-1.3369,-1.3367,-1.3363,-1.336,-1.3357,-1.335,-1.3347,-1.334,-1.3339,-1.3333,-1.3329,-1.3322,-1.3315,-1.331,-1.3307,-1.331,-1.3306,-1.3309,-1.3308,-1.3309,-1.3309,-1.3311,-1.3311,-1.3311,-1.3311,0,-1.3382,-1.338,-1.3376,-1.3372,-1.3368,-1.3364,-1.336,-1.3358,-1.3351,-1.3348,-1.3344,-1.334,-1.3334,-1.3329,-1.3323,-1.3319,-1.3314,-1.3313,-1.3313,-1.3315,-1.3319,-1.3318,-1.3307,-1.3312,-1.3312,-1.3312,-1.3312,-1.3312,-1.3386,-1.3384,-1.3379,-1.3376,-1.3372,-1.3369,-1.3367,-1.3362,-1.3359,-1.3353,-1.335,-1.3346,-1.334,-1.3332,-1.3328,-1.3325,-1.3323,-1.3323,-1.3323,-1.3324,-1.3325,-1.3319,-1.3324,-1.3324,-1.3324,-1.3324,-1.3324,0,-1.3389,-1.3386,-1.3383,-1.3378,-1.3376,-1.3373,-1.3368,-1.3366,-1.3363,-1.3359,-1.3355,-1.3351,-1.3347,-1.3341,-1.3337,-1.3336,-1.3333,-1.3335,-1.3335,-1.3334,-1.3327,-1.3327,-1.3337,-1.3337,-1.3337,-1.3337,-1.3337,-1.3337,-1.3391,-1.3389,-1.3386,-1.3383,-1.338,-1.3377,-1.3375,-1.3372,-1.3369,-1.3365,-1.3362,-1.3358,-1.3353,-1.3349,-1.3345,-1.3344,-1.3343,-1.3345,-1.3343,-1.3336,-1.3334,-1.3333,-1.3334,-1.3345,-1.3345,-1.335,-1.335,-1.3351]}]]